GFSSW_850_spd_159.txt.gz
Wind_Speed
10 10 10 10 9 9 9 9 9 9 10 9 9 10 10 10 12 13 12 4 2 2 3 5 4 7 11 2 4 4 4 2 4 5 4 18 6 7 7 14 5 2 20 19 24
11 11 11 11 11 10 10 10 10 9 11 10 10 11 11 11 14 18 10 9 7 5 3 5 7 7 5 3 7 4 3 7 7 7 9 11 5 9 6 12 10 20 21 24 22
12 13 12 12 11 11 11 11 11 10 10 10 10 11 11 10 12 23 15 13 14 10 4 5 6 6 4 6 10 7 6 6 10 11 23 13 11 7 17 4 10 28 26 25 23
13 13 13 13 12 12 12 12 12 10 9 9 9 10 9 8 5 3 8 12 12 11 8 4 3 4 3 3 9 5 9 19 16 20 18 8 18 12 3 7 23 24 26 25 23
12 13 14 14 14 13 13 13 12 9 8 7 7 8 8 9 19 4 3 8 9 8 7 5 4 3 1 7 7 2 6 14 26 20 21 23 13 8 12 20 22 20 22 23 24
14 13 14 14 14 14 13 13 12 9 8 8 8 9 10 6 11 18 4 3 8 8 5 5 5 14 4 4 3 3 11 19 22 21 21 15 18 6 13 23 21 20 20 21 21
15 15 14 15 15 14 13 13 12 9 9 9 9 9 13 21 8 13 15 8 7 7 7 5 6 11 7 4 11 26 15 9 10 13 8 28 2 6 26 25 23 20 20 19 19
16 16 16 15 16 15 13 13 12 9 9 9 7 8 11 9 17 14 12 12 11 8 8 4 8 7 3 3 6 8 6 6 6 11 15 2 3 10 27 25 22 21 21 19 21
18 17 17 16 16 16 12 13 12 8 7 6 5 7 8 9 19 16 12 8 10 9 7 5 4 1 3 4 5 6 7 3 6 20 6 2 4 16 27 25 21 23 23 22 22
20 19 17 17 16 16 12 13 10 7 5 4 7 4 11 6 21 16 11 8 4 7 5 2 1 4 4 5 3 5 3 1 10 16 6 6 5 18 29 26 25 24 25 27 26
21 20 19 16 16 15 12 8 4 1 4 10 6 9 6 8 15 20 14 11 9 1 3 4 3 8 8 7 5 1 4 7 13 7 6 7 7 19 30 24 23 27 28 30 34
20 20 20 16 15 14 10 5 9 10 11 13 17 26 26 22 6 23 20 13 6 5 3 4 8 6 3 3 2 4 4 11 6 9 7 6 4 17 25 31 31 32 31 34 35
20 20 20 17 15 12 4 6 4 13 5 12 18 19 20 14 12 21 25 19 4 6 6 8 6 6 5 2 3 2 5 11 8 6 5 9 3 8 11 15 21 29 34 33 36
20 19 19 16 9 6 2 6 7 7 3 7 7 12 16 13 5 23 27 19 4 12 6 6 9 5 2 5 7 5 7 12 14 15 7 3 4 7 11 15 18 24 30 37 38
21 19 16 15 14 6 7 7 4 8 3 4 6 5 21 18 8 19 26 25 9 6 8 9 6 5 6 12 7 10 4 4 10 7 7 3 3 7 11 15 20 26 33 37 43
25 20 18 14 18 11 8 7 5 5 8 6 8 9 9 12 5 23 24 21 9 4 3 8 2 5 7 0 7 5 1 7 6 5 1 9 7 4 12 27 25 26 31 39 42
26 24 18 19 11 7 5 4 3 5 3 5 6 7 8 7 5 8 14 10 7 6 7 6 8 6 4 6 2 5 5 3 3 4 5 4 3 12 19 22 24 30 37 40 42
21 27 21 23 15 12 8 3 6 9 10 5 1 3 14 7 5 5 14 14 3 5 4 6 6 7 3 9 8 5 7 6 5 4 5 5 5 7 9 28 37 38 45 37 38
24 22 26 20 15 13 7 4 11 7 6 4 6 6 3 4 6 6 10 18 16 9 8 7 6 4 5 6 10 4 2 4 8 2 3 4 7 7 7 2 15 24 26 33 39
24 18 25 20 14 17 4 8 6 5 2 2 8 1 8 9 8 8 10 12 6 12 4 5 1 4 4 3 3 6 7 3 3 2 4 5 4 6 3 4 7 11 24 34 37
16 9 5 5 20 17 6 7 6 12 4 4 2 2 2 1 6 5 10 3 19 10 15 6 3 6 1 5 8 1 2 7 6 5 6 1 6 6 2 5 10 12 30 34 35
4 3 7 18 5 4 4 6 5 10 2 4 2 2 1 3 1 3 9 14 24 12 11 8 6 4 10 5 1 2 5 7 5 4 1 4 5 3 5 3 15 14 12 20 26
11 9 8 14 3 2 4 4 5 2 3 4 4 1 4 3 4 3 3 4 15 14 13 8 2 1 9 5 4 3 4 5 6 4 7 6 5 4 9 5 10 22 18 16 20
5 4 4 7 10 2 4 7 6 12 7 3 1 4 5 2 4 4 4 3 6 21 28 22 5 11 13 7 5 4 5 5 7 4 5 6 5 4 7 11 11 20 22 22 25
3 3 4 3 3 5 4 3 12 10 12 9 6 13 5 3 2 6 3 4 10 10 9 8 10 7 9 11 6 5 6 8 7 8 7 9 11 11 17 16 22 27 26 28 29
3 2 7 9 12 5 3 5 10 13 9 8 10 2 10 12 11 6 4 1 6 5 2 2 5 8 9 9 11 7 10 9 5 5 1 4 6 3 12 16 20 27 30 31 31
1 4 5 6 5 4 2 6 5 8 4 13 8 6 6 9 18 24 24 16 13 5 1 3 7 6 9 6 7 6 11 7 5 4 8 7 11 11 6 18 27 29 32 35 34

GFSSW_850_spd_162.txt.gz
Wind_Speed
11 10 11 11 11 11 10 10 11 11 10 9 9 10 11 12 13 13 12 3 2 0 3 4 3 3 5 2 4 1 4 2 1 4 4 11 4 8 8 11 7 3 16 19 21
11 11 11 11 11 11 12 11 12 11 11 10 10 11 12 13 14 18 12 8 5 2 3 1 2 4 2 2 3 3 3 6 5 6 5 8 7 7 5 9 9 19 19 20 19
10 11 12 12 12 12 12 12 12 12 11 11 11 11 11 11 12 21 16 12 10 9 5 4 5 4 0 2 3 2 5 4 5 12 20 7 7 5 15 4 6 22 24 21 19
12 11 12 12 13 13 13 13 12 12 10 10 10 10 10 7 5 2 5 8 9 9 7 4 2 1 2 3 7 3 7 4 12 15 10 5 12 10 2 5 19 20 23 20 20
14 14 13 13 13 13 13 14 13 12 10 9 9 9 8 8 17 4 2 5 10 10 8 4 3 2 2 1 5 1 4 11 19 16 14 15 10 8 11 16 20 20 19 18 18
16 15 15 14 14 13 13 14 14 13 10 9 10 10 9 6 10 16 15 1 8 10 9 7 3 7 3 3 3 8 20 19 16 13 11 10 8 3 8 18 17 18 17 16 18
18 17 16 17 16 14 13 14 14 14 11 10 10 11 14 22 10 10 14 10 7 9 10 6 0 4 4 4 15 22 9 10 7 9 4 24 2 2 20 19 17 15 16 17 17
18 18 18 17 17 16 13 14 14 14 10 10 10 10 11 9 23 15 12 13 10 9 11 6 1 2 3 13 6 6 6 4 4 7 12 1 1 4 19 20 17 14 15 16 18
18 19 19 18 17 17 14 14 13 12 9 8 7 7 10 7 14 17 13 9 10 9 9 4 1 5 3 6 5 6 4 3 2 11 7 1 2 10 20 19 18 17 17 16 17
20 19 20 18 17 17 14 12 10 7 7 7 9 5 10 3 6 17 13 9 5 5 5 4 3 4 4 5 5 6 4 2 6 8 4 6 5 10 23 19 20 20 19 18 19
20 20 20 18 18 15 12 5 2 3 6 9 3 6 8 6 5 17 15 10 7 3 5 2 4 5 8 6 5 5 6 6 6 5 5 8 5 11 20 20 17 21 22 22 23
21 20 19 17 17 13 5 6 10 4 10 15 24 28 26 20 7 13 18 11 6 4 3 4 6 5 7 7 8 7 6 6 4 4 10 6 4 8 18 22 20 20 24 26 26
21 21 19 16 14 8 1 8 4 8 4 12 18 21 23 15 13 14 21 15 4 5 6 7 5 6 7 5 4 4 5 4 5 4 4 7 2 7 8 17 19 24 28 30 30
22 20 19 15 7 5 6 7 9 8 3 7 7 11 16 12 6 19 20 15 2 10 6 4 4 5 3 3 7 5 7 7 9 7 5 2 4 6 9 13 17 26 29 35 35
23 21 18 14 10 3 5 4 8 6 3 4 5 5 17 17 9 15 26 15 8 6 7 9 7 5 5 8 7 8 3 2 6 6 6 1 3 6 8 11 19 27 33 38 39
22 21 19 15 14 8 9 5 6 4 8 5 7 8 7 8 7 13 17 12 6 5 2 5 2 5 8 4 9 3 6 9 7 4 2 6 5 5 6 16 17 26 33 40 42
20 22 19 19 9 6 4 1 3 5 2 5 6 6 5 7 5 7 11 10 7 5 5 1 5 3 4 4 1 5 6 3 3 2 5 2 5 10 9 13 17 26 39 39 43
26 20 20 22 14 11 5 3 6 8 9 4 1 4 8 5 5 6 12 14 2 6 4 7 3 8 4 9 8 6 8 6 6 5 3 3 5 7 5 16 22 28 39 33 34
25 22 20 16 14 13 8 4 11 6 6 4 3 4 5 4 7 5 9 17 15 9 7 6 6 4 6 5 10 5 3 5 8 3 3 3 7 10 5 5 6 22 25 30 35
25 22 16 7 13 16 4 7 6 4 3 2 9 4 9 6 6 8 10 8 7 8 3 7 2 5 3 6 4 5 7 3 3 5 4 4 4 5 7 6 4 10 26 32 34
19 11 3 5 17 16 5 7 5 8 3 1 4 4 4 6 7 10 11 2 15 9 8 6 3 3 3 5 9 2 2 6 6 4 6 2 6 6 7 6 8 13 25 29 32
8 3 8 15 3 1 4 6 4 4 4 3 1 2 3 1 5 7 9 12 23 13 12 7 4 4 7 1 1 4 7 6 5 4 1 4 6 5 8 9 9 15 20 21 21
12 6 3 7 3 2 5 5 4 4 4 5 4 2 2 3 4 3 5 2 14 10 12 8 2 2 8 5 2 4 4 5 6 4 7 7 5 3 3 5 10 12 15 15 18
5 3 4 7 3 2 5 5 9 9 3 1 2 0 3 1 2 2 2 2 6 13 23 20 5 8 9 6 5 4 5 5 7 5 6 6 5 5 7 9 10 14 16 19 22
2 2 3 4 3 4 1 5 6 5 13 7 3 6 5 4 2 3 2 3 4 7 9 7 8 7 7 8 6 5 5 9 6 6 7 9 11 12 15 16 15 16 16 23 25
2 1 5 8 10 5 1 1 4 11 5 9 6 5 8 7 7 5 4 2 3 7 4 3 4 7 6 8 9 8 9 9 5 4 2 6 6 7 8 14 20 25 24 26 29
1 4 4 6 4 3 1 4 6 9 7 18 8 4 6 7 13 18 15 9 7 2 3 0 6 4 8 3 7 6 17 6 5 5 7 6 12 8 6 13 23 25 25 30 33

GFSSW_850_spd_165.txt.gz
Wind_Speed
9 10 10 10 10 10 11 12 11 11 10 9 10 11 11 11 11 10 7 1 5 3 1 0 2 3 4 2 2 1 2 2 2 5 8 13 5 6 6 8 5 4 15 22 24
10 10 10 11 11 11 11 11 11 11 11 10 11 12 12 12 13 15 7 4 3 2 1 1 4 3 2 2 1 2 1 3 4 9 11 10 5 8 5 7 8 17 19 22 23
12 11 11 11 11 11 12 12 12 12 11 11 11 11 11 10 12 10 9 8 10 7 5 3 4 3 2 3 2 1 3 5 10 15 18 10 9 5 12 5 7 21 25 22 24
13 13 12 12 12 12 12 12 12 12 12 10 10 11 10 6 5 3 2 9 12 11 9 4 1 1 1 0 1 1 6 7 11 13 9 7 9 9 3 7 16 18 20 22 22
15 14 14 13 13 13 12 13 13 12 12 11 10 10 8 7 12 5 3 7 14 13 11 6 2 0 2 3 3 3 8 12 15 18 15 12 10 9 14 16 16 17 17 16 17
15 16 16 15 14 14 13 13 13 13 12 11 10 10 9 6 11 16 11 2 12 14 11 7 1 3 1 7 1 10 21 18 12 13 11 12 6 3 8 14 16 15 14 15 16
17 17 17 17 17 15 14 14 13 13 12 11 10 10 12 18 8 11 13 9 10 13 9 6 1 2 3 9 13 18 16 11 9 8 4 8 8 6 14 14 14 13 11 11 13
18 18 17 17 17 16 14 15 14 13 11 10 10 10 9 8 19 16 9 12 10 11 8 6 2 1 3 18 4 5 7 6 6 5 7 7 5 9 13 13 12 11 10 12 13
19 18 18 17 17 17 15 14 13 11 10 9 9 7 8 7 15 16 16 14 12 8 9 8 3 3 8 8 5 2 6 5 6 8 4 4 4 12 15 12 11 12 12 12 12
20 19 18 17 16 16 14 12 10 8 8 7 11 5 11 3 4 13 19 13 12 11 9 6 3 3 3 5 5 8 5 5 6 11 8 7 3 11 18 16 14 13 14 14 14
21 20 18 16 15 13 10 7 6 5 10 10 4 6 3 1 5 12 21 18 12 11 8 6 7 11 13 6 1 8 5 9 11 8 10 12 5 9 18 17 15 14 16 16 16
21 21 18 16 13 9 5 3 5 4 9 16 24 24 20 15 4 9 21 12 7 10 8 5 13 7 8 7 11 7 5 7 3 7 13 8 12 6 17 21 20 18 18 18 16
21 20 19 14 12 4 4 8 4 6 4 10 19 20 24 19 10 13 22 14 10 10 13 12 5 17 11 9 10 6 6 4 5 6 4 6 8 9 10 16 19 21 20 20 21
22 20 18 13 6 4 7 6 4 4 4 5 7 11 18 15 6 18 18 16 5 15 10 7 5 12 11 12 10 10 10 7 8 8 3 9 1 7 13 16 19 23 25 26 26
21 20 17 12 9 3 5 3 5 5 4 3 5 5 16 19 11 14 22 12 10 8 8 10 13 10 8 6 12 3 4 7 7 8 5 8 4 3 6 15 21 29 30 29 29
20 21 19 13 12 7 7 3 7 4 9 3 7 9 10 13 10 11 16 12 7 6 3 4 2 6 10 5 12 14 10 12 7 5 4 6 6 3 7 15 20 27 30 31 30
22 20 19 18 8 5 4 4 5 7 0 6 6 8 17 12 13 13 19 17 12 9 9 3 7 1 3 10 8 7 8 4 4 4 1 1 7 11 11 11 11 23 35 34 32
22 22 20 20 14 12 5 4 12 11 9 1 4 7 14 12 16 12 21 22 11 5 7 11 10 11 9 9 8 13 9 4 4 4 3 3 6 7 4 6 10 21 23 29 30
24 21 19 10 13 15 8 11 11 6 15 5 6 8 10 10 10 12 20 25 23 16 8 11 8 4 13 7 11 6 7 2 6 2 3 4 5 12 6 8 7 14 17 22 28
24 23 12 6 12 18 7 10 6 3 2 14 8 5 14 17 12 18 18 19 17 17 6 6 7 7 10 7 4 6 12 6 1 7 6 4 4 5 4 4 1 7 15 19 20
19 10 4 7 12 10 9 10 7 8 5 5 15 7 5 12 15 20 17 8 23 19 15 8 2 5 9 12 15 6 5 5 4 2 9 6 5 6 8 5 7 2 11 14 17
8 4 8 12 6 3 8 5 9 10 3 3 1 5 8 8 15 15 21 17 29 25 21 8 2 5 12 4 0 9 12 10 7 5 1 4 7 4 8 11 8 6 8 13 16
9 6 4 7 4 5 3 8 8 14 7 3 3 3 2 5 6 14 10 8 18 21 20 11 4 6 7 4 2 6 5 5 7 3 8 10 7 2 6 8 8 7 8 13 15
5 3 2 4 1 3 4 6 16 14 10 4 3 1 3 3 2 7 11 5 14 24 20 26 8 10 11 12 8 7 9 10 12 7 8 9 9 7 9 10 9 8 9 12 16
2 1 3 3 2 4 2 4 7 11 15 10 5 7 7 3 2 3 6 7 8 6 13 12 14 12 11 4 5 7 14 15 14 12 12 11 12 13 14 14 15 11 12 14 16
2 3 3 6 6 4 2 0 5 9 6 20 8 10 5 8 1 4 2 2 3 7 4 4 8 8 18 14 13 18 15 15 13 6 4 4 9 12 13 7 12 15 15 16 19
2 3 4 3 4 3 2 3 2 9 7 14 10 15 6 9 8 8 4 2 1 1 2 3 7 6 14 9 9 11 18 16 11 9 6 7 11 10 10 15 21 21 21 20 21

GFSSW_850_spd_171.txt.gz
Wind_Speed
12 12 12 11 10 10 9 9 10 10 10 11 11 10 10 11 10 10 6 5 6 7 6 2 5 6 7 12 7 11 3 9 13 13 13 10 11 8 17 14 9 3 19 22 23
13 12 12 12 12 11 11 10 10 10 10 10 11 12 11 12 13 14 12 6 5 4 2 5 8 5 14 5 4 10 12 10 10 12 9 7 13 11 13 13 16 19 22 24 22
13 14 13 13 13 13 12 12 11 11 10 10 11 11 10 11 13 12 9 9 9 8 7 9 10 8 16 5 5 18 15 12 13 12 12 13 10 7 9 15 13 20 26 22 20
14 14 15 14 14 14 13 13 12 11 11 10 10 10 9 6 7 1 8 11 11 11 11 10 9 16 4 9 1 14 15 14 13 10 10 14 11 9 17 17 18 21 23 22 19
16 16 15 15 16 15 14 14 14 13 11 10 10 9 8 11 20 14 7 8 13 14 13 11 11 10 5 9 9 14 12 15 13 12 12 11 14 15 18 18 20 22 20 20 18
18 17 17 16 16 16 15 15 15 14 13 12 10 9 8 18 10 8 9 6 11 14 13 12 9 6 5 2 3 15 13 15 16 14 14 15 13 13 15 18 20 19 18 18 17
19 19 18 17 17 17 16 16 16 15 14 12 11 9 12 20 8 10 14 9 11 14 15 11 8 10 1 5 12 13 13 14 13 11 7 17 12 14 15 16 18 15 15 15 16
19 20 19 19 18 17 16 16 16 14 13 12 11 8 14 9 21 17 13 14 13 13 14 8 9 11 12 9 14 18 21 15 13 9 7 10 12 14 16 16 16 17 16 16 16
22 20 20 19 19 18 16 16 15 14 12 11 7 8 18 14 19 19 18 19 14 14 13 9 10 17 7 15 15 1 4 15 12 3 5 9 13 15 16 15 16 16 16 16 17
23 23 20 20 19 18 15 14 13 13 11 8 11 8 22 17 13 19 21 21 17 16 14 13 12 13 13 18 10 25 24 12 15 11 6 4 15 16 16 14 15 16 15 15 16
25 23 22 18 18 17 13 6 8 8 19 18 14 20 1 11 12 18 23 24 19 20 18 21 14 16 20 9 9 11 3 12 10 8 6 2 17 14 17 14 15 15 16 16 16
25 26 23 18 15 14 8 6 3 6 12 22 28 22 18 10 15 20 26 27 25 21 23 16 20 20 19 18 14 4 6 8 8 8 8 10 7 17 17 15 16 16 17 16 16
23 25 25 17 13 7 8 6 5 8 10 23 28 31 26 18 19 25 31 33 25 25 25 22 23 21 18 8 12 13 13 12 6 5 10 5 10 14 18 17 15 16 16 17 18
22 23 24 18 4 9 4 5 7 6 7 18 27 25 31 26 24 22 32 36 19 27 26 23 23 21 10 15 17 16 7 4 4 9 4 9 2 14 16 15 16 18 18 19 19
21 21 21 14 11 5 4 8 8 3 7 9 25 15 29 34 14 29 31 35 25 23 22 25 24 19 21 21 17 10 9 8 6 8 11 14 8 15 16 16 17 20 21 20 22
21 20 20 9 13 16 13 9 4 8 17 8 14 16 25 35 32 31 30 36 32 22 26 25 29 20 20 19 18 18 6 7 11 11 12 12 12 13 15 16 17 20 24 23 23
21 20 19 16 12 3 8 7 8 14 15 15 21 20 27 21 30 26 29 29 25 23 25 26 28 21 20 22 21 13 11 10 11 11 9 17 10 4 15 12 17 21 24 26 25
23 22 20 18 17 13 10 10 17 18 27 8 22 22 28 27 32 29 29 28 29 29 19 22 25 20 23 25 20 19 20 13 15 12 11 7 7 6 10 19 12 21 26 26 27
24 19 18 16 16 15 17 17 18 20 30 13 19 22 25 26 30 23 28 31 31 29 21 23 29 25 25 21 25 18 21 23 22 17 8 14 12 16 10 11 10 14 22 29 28
19 19 23 18 15 16 15 28 21 29 14 30 18 20 24 28 32 31 30 32 33 31 27 20 21 24 25 21 30 26 20 21 17 15 13 9 16 10 16 15 13 14 20 26 30
15 13 7 9 15 21 18 27 29 30 25 18 25 20 22 27 30 28 29 25 33 33 28 28 19 24 23 23 23 22 20 23 20 15 11 12 12 12 14 12 7 9 22 24 28
15 11 6 9 16 19 18 28 35 34 23 15 13 22 21 23 26 29 31 31 40 28 34 28 11 17 24 22 24 23 22 25 15 18 15 11 3 19 15 8 7 12 18 23 24
16 20 13 9 13 14 21 27 32 30 27 20 13 18 23 19 23 27 25 28 28 33 32 25 17 17 22 23 23 24 25 23 25 18 15 13 10 8 10 5 8 11 19 23 24
12 6 14 15 21 19 19 24 28 36 24 27 18 22 18 19 15 20 28 29 33 24 34 30 21 20 18 21 22 28 27 28 22 17 15 17 15 16 11 9 13 9 18 21 22
8 7 5 6 7 14 16 16 24 28 21 28 22 23 18 17 19 18 23 23 24 20 21 27 28 22 23 21 25 24 28 26 28 25 21 19 16 12 7 8 11 16 16 20 21
8 6 15 18 8 10 5 15 14 22 25 26 20 18 19 18 21 15 18 24 23 24 21 23 21 27 24 27 23 29 30 32 29 28 23 22 16 7 15 10 15 13 15 18 21
10 12 11 9 10 11 13 16 16 16 24 29 20 20 20 13 9 3 13 10 20 21 22 24 20 21 24 24 22 22 26 28 30 27 24 23 19 16 9 11 14 17 14 17 21

GFSSW_850_spd_174.txt.gz
Wind_Speed
13 12 11 11 12 12 11 11 11 11 12 12 12 12 13 14 13 14 7 7 9 10 10 3 10 12 15 20 17 14 4 10 13 16 11 9 18 21 18 16 9 12 27 28 27
14 14 14 13 13 12 12 12 12 12 12 13 13 13 14 17 16 17 15 13 10 9 9 8 15 15 20 19 16 10 10 13 14 12 8 13 14 23 21 20 19 26 28 28 26
15 15 15 15 15 15 14 13 13 12 12 12 13 13 13 15 17 18 9 13 11 12 9 13 17 19 23 15 29 7 14 14 15 16 15 13 10 8 24 14 22 28 30 27 26
16 16 16 16 16 16 15 15 14 14 13 12 13 12 12 10 7 2 5 9 10 13 14 14 21 25 24 2 10 18 18 17 15 13 16 11 12 20 21 22 21 27 27 27 23
18 17 17 17 17 17 16 16 16 15 14 13 13 12 11 11 24 19 20 18 12 14 14 13 21 22 14 8 11 16 15 15 16 16 14 19 18 17 20 23 24 25 23 22 20
19 19 18 18 18 18 17 17 16 15 15 13 13 12 11 19 22 10 10 11 8 14 15 14 19 15 16 33 4 2 16 16 17 13 19 17 18 16 17 24 25 22 21 21 20
20 20 19 19 19 19 18 17 17 15 15 13 13 13 13 26 10 13 15 17 14 16 17 15 16 16 17 6 26 24 16 13 14 14 16 21 18 15 20 20 19 19 19 20 18
19 20 21 20 21 20 19 18 17 16 14 13 12 12 15 16 20 20 15 17 17 16 17 18 13 16 18 23 21 29 10 3 10 15 9 16 12 18 20 19 18 19 19 17 18
23 21 20 21 20 21 20 18 17 15 14 12 10 11 20 8 24 23 24 20 19 18 17 16 14 18 14 13 11 12 8 17 15 9 15 8 17 20 20 18 18 19 19 17 17
26 23 22 19 21 20 19 17 14 14 13 11 13 10 27 24 19 23 23 22 21 18 18 18 16 14 15 11 5 15 20 14 17 9 8 17 18 17 21 21 18 19 19 19 20
27 28 23 20 18 17 17 8 9 3 14 18 13 21 23 16 15 21 25 23 24 21 18 23 14 16 21 19 25 28 14 25 19 12 5 4 17 18 19 19 21 20 20 18 18
28 27 27 20 16 12 9 6 8 9 13 21 33 32 29 14 13 18 24 28 26 20 21 19 19 21 20 14 28 9 24 14 15 9 2 14 20 18 19 17 20 22 21 20 20
25 28 27 22 12 6 9 13 10 12 11 25 31 33 31 24 21 22 28 32 25 23 23 22 22 24 20 16 18 20 13 7 11 9 8 9 19 18 18 16 20 21 21 21 22
24 24 27 23 5 6 7 3 8 10 7 16 26 37 35 31 25 27 31 32 22 25 26 22 26 23 22 16 15 16 11 6 10 7 6 12 6 15 19 15 17 22 23 22 24
22 23 23 11 16 10 11 12 12 6 7 10 32 22 40 39 15 31 29 34 27 23 22 25 25 24 22 18 17 12 11 13 7 6 9 15 5 12 19 17 17 22 25 24 25
19 21 22 12 12 13 19 16 8 7 15 9 13 26 29 37 38 26 30 35 34 24 26 27 33 24 22 13 16 11 8 4 2 9 10 13 7 8 17 16 19 24 26 27 26
21 21 21 18 19 10 8 8 7 13 14 15 22 23 25 28 30 27 29 28 25 25 25 28 30 26 26 20 19 20 16 6 8 10 11 12 12 9 17 19 18 20 28 27 30
21 23 22 20 19 14 11 10 15 17 29 12 21 21 25 28 29 31 29 26 31 27 19 21 24 29 24 20 20 21 18 11 10 11 13 6 7 7 16 18 24 27 28 29 29
23 19 21 18 16 14 17 15 15 23 30 29 20 23 23 28 25 30 29 29 31 31 27 22 27 27 27 18 22 22 19 15 20 17 9 8 6 17 17 17 14 26 30 31 31
23 21 25 20 18 22 15 26 22 24 28 25 30 21 22 27 30 31 30 30 31 34 28 20 17 25 28 17 23 23 16 18 14 17 14 10 13 10 15 13 12 10 24 32 34
19 11 14 6 21 25 18 25 25 43 35 26 24 28 23 26 29 24 32 25 32 34 29 30 20 22 23 22 25 18 20 16 19 15 14 5 9 14 16 14 14 17 17 28 34
18 11 5 9 15 20 17 26 33 33 39 28 26 30 25 23 27 31 34 31 38 30 34 29 16 16 30 25 26 24 23 22 13 19 14 10 11 14 17 15 15 11 11 21 32
14 19 18 11 13 15 20 27 31 30 32 29 30 28 20 21 21 29 30 33 34 32 30 25 21 14 20 24 24 27 25 24 20 18 17 11 2 17 16 14 16 12 13 16 20
12 4 14 14 27 20 21 24 26 39 31 36 29 29 20 21 23 21 29 29 41 33 39 31 22 17 16 18 20 23 25 27 25 16 17 17 8 6 13 12 12 7 18 15 18
8 1 4 6 14 20 21 22 23 28 33 35 28 29 22 20 22 23 23 28 28 34 26 25 23 22 23 20 25 24 26 25 25 21 19 18 15 14 11 10 16 17 23 18 17
7 9 7 21 17 22 9 13 23 21 27 28 27 24 21 22 21 16 18 21 23 27 22 27 20 21 24 25 21 28 28 27 26 25 23 23 17 19 26 24 15 21 24 18 20
16 21 16 19 14 13 7 15 14 21 24 33 24 18 22 15 20 24 26 25 21 21 22 22 18 19 20 24 23 21 27 28 25 25 24 20 17 12 8 9 16 21 22 23 21

GFSSW_850_spd_180.txt.gz
Wind_Speed
11 11 11 11 11 11 11 12 12 13 13 14 14 14 15 16 14 14 13 10 10 11 13 13 12 14 10 11 16 3 3 2 7 16 10 21 19 13 10 21 6 10 21 29 30
13 12 12 13 13 12 12 12 12 13 14 14 15 15 16 17 17 15 14 15 14 12 13 14 16 17 11 8 4 5 4 5 7 17 17 24 29 16 8 14 11 20 22 34 31
15 15 15 14 14 14 14 14 13 14 14 15 15 15 16 16 17 16 8 6 8 9 14 15 15 14 9 3 8 4 4 7 25 22 28 24 18 11 22 4 19 36 38 34 30
17 16 16 16 16 16 15 15 14 14 14 15 15 16 15 13 4 4 1 12 15 16 17 15 12 11 3 5 4 6 10 14 12 25 24 19 16 17 6 6 25 37 37 33 31
17 18 17 17 17 17 17 16 16 15 15 14 14 16 15 9 22 18 19 21 17 12 15 12 11 9 2 7 5 3 7 24 33 33 25 22 15 11 19 25 30 31 30 30 29
18 18 19 18 18 18 18 17 17 16 15 15 14 15 15 10 25 23 25 22 10 14 12 11 8 14 17 5 6 4 23 24 30 27 24 24 21 7 20 29 29 29 27 25 26
19 20 19 19 20 20 19 17 16 17 16 16 14 16 20 31 18 8 11 19 14 15 20 16 16 12 23 2 6 9 8 10 21 17 15 29 6 10 28 28 27 25 25 24 21
21 21 20 20 20 21 20 17 15 16 15 15 14 16 17 26 23 27 21 18 18 19 16 16 12 15 4 4 6 5 6 4 3 10 16 5 5 16 26 26 24 22 22 24 25
23 23 22 21 21 21 20 17 14 14 13 13 11 10 17 15 17 20 27 24 15 16 14 14 15 3 1 4 5 8 1 1 0 4 7 2 10 18 27 25 24 23 25 23 25
23 23 23 21 20 20 16 13 7 7 8 8 11 6 19 14 2 16 21 23 18 12 15 9 6 4 3 3 4 4 2 3 3 4 15 5 7 20 30 27 26 25 24 24 27
23 23 22 21 18 16 13 3 9 1 16 12 10 14 22 4 16 9 11 21 17 14 6 12 4 7 10 9 8 8 5 5 4 2 4 2 13 21 27 24 24 26 27 28 29
23 22 22 20 16 9 10 9 14 15 15 16 23 31 37 29 16 13 9 15 13 9 4 2 7 12 9 11 6 12 8 5 5 7 4 7 11 17 26 29 32 32 32 34 33
21 24 22 19 12 4 7 10 9 15 6 13 27 32 38 16 21 29 10 22 7 8 7 8 8 6 8 5 6 1 4 4 6 4 5 10 3 14 19 25 26 29 33 34 35
19 21 24 20 6 12 3 6 6 8 3 7 10 18 30 24 10 31 26 13 7 13 5 7 12 11 9 12 10 6 9 9 7 2 4 8 4 12 17 19 23 29 31 35 36
19 18 20 19 22 17 13 8 7 0 4 5 7 7 20 23 8 22 30 19 15 7 8 10 10 12 14 11 21 16 8 15 15 10 2 5 4 6 10 15 19 28 33 35 37
19 18 20 17 18 14 12 9 4 4 8 6 5 7 9 13 10 10 18 25 22 9 6 13 11 10 14 12 17 7 8 15 6 4 7 16 6 4 12 21 22 29 35 36 38
22 18 17 20 19 15 9 4 3 4 6 6 5 6 6 8 16 6 17 10 10 13 11 5 13 14 7 7 6 14 13 4 3 2 7 9 4 9 23 16 24 28 36 37 42
24 20 17 18 16 4 1 4 4 5 11 7 5 1 11 6 11 8 6 13 6 6 5 10 9 19 7 11 9 8 19 6 7 5 5 6 7 10 27 31 37 43 49 42 42
24 23 21 14 1 3 0 2 7 6 5 12 16 7 5 6 7 12 12 9 14 11 12 8 9 6 13 12 10 8 3 8 7 2 3 4 6 6 17 20 27 31 33 37 44
25 27 12 12 13 5 2 5 5 4 12 7 4 9 8 11 7 19 11 11 7 12 9 5 2 7 7 9 10 8 5 3 3 3 2 5 5 4 10 20 20 23 35 39 44
20 12 4 14 10 12 4 6 7 30 16 10 12 8 6 6 8 7 9 12 21 12 13 6 4 7 5 8 15 1 3 4 6 5 6 2 6 8 17 19 23 29 41 41 48
10 3 16 13 4 1 5 5 11 23 24 11 7 6 12 7 8 5 6 4 23 22 13 11 5 7 12 3 9 9 12 8 5 4 2 5 6 6 14 15 27 34 40 45 53
17 8 11 12 3 3 7 5 7 16 21 7 5 11 13 9 7 10 7 9 31 20 20 12 8 1 6 7 4 6 6 6 6 4 6 5 7 3 7 15 35 36 40 44 47
7 4 7 7 8 3 5 5 7 16 16 13 15 19 17 15 8 10 15 13 28 21 35 23 5 17 10 8 5 4 7 7 8 5 6 7 9 13 6 12 15 34 43 42 44
3 3 5 4 4 4 3 5 9 7 6 15 9 15 16 6 9 14 14 12 18 16 18 17 16 9 21 15 6 5 8 9 7 7 7 9 8 12 6 11 23 40 39 39 39
4 2 6 11 16 4 2 4 9 11 4 13 9 16 10 17 18 10 12 8 10 10 12 9 10 10 16 11 6 11 10 17 12 6 8 8 8 8 11 12 18 34 39 38 43
4 7 6 8 5 2 4 7 12 15 14 13 13 17 15 17 31 32 31 29 19 12 5 6 17 9 16 15 11 7 8 13 13 13 13 11 12 5 6 9 26 29 35 41 47

GFSSW_850_spd_183.txt.gz
Wind_Speed
11 12 12 12 13 13 13 13 13 13 13 13 13 13 15 14 13 13 10 10 8 8 8 7 6 4 10 11 14 6 3 3 5 6 5 13 6 6 4 13 4 4 13 21 29
12 12 12 13 13 14 14 14 14 14 15 14 14 14 15 16 15 12 11 9 7 7 8 11 10 9 6 6 7 6 4 7 8 8 9 18 10 11 7 5 5 11 17 29 33
13 13 14 14 14 14 15 15 15 15 15 16 15 14 15 15 14 4 9 10 10 11 12 13 12 8 4 4 5 5 5 5 12 14 23 18 12 5 15 3 10 17 29 33 32
16 15 15 15 16 15 15 15 15 16 16 16 16 15 15 11 4 7 6 3 11 11 12 12 10 9 2 4 2 4 6 7 15 19 17 12 8 10 4 3 14 22 34 33 31
17 17 17 17 17 17 17 17 16 15 16 16 16 16 14 9 20 11 14 19 18 8 10 12 8 6 3 3 2 4 5 8 26 22 20 16 11 6 7 9 16 29 31 30 27
17 17 18 18 18 18 18 17 17 16 16 16 16 17 14 10 22 21 24 25 16 7 8 9 8 18 9 7 3 3 16 17 25 20 20 13 8 4 6 15 21 26 26 26 25
20 19 18 19 20 20 19 18 16 17 16 15 17 18 20 29 17 13 13 20 16 11 10 9 12 14 14 5 8 14 10 10 10 10 7 22 5 4 16 17 21 22 22 21 22
20 21 20 20 21 21 20 18 16 17 16 15 15 17 16 22 24 27 26 23 14 14 12 10 11 14 4 2 6 5 5 4 5 9 11 2 0 8 19 19 18 19 19 19 20
21 21 21 21 21 21 20 16 15 15 14 13 12 10 14 15 19 12 20 27 18 15 13 11 7 5 4 5 4 6 5 2 4 13 7 2 3 15 23 19 19 19 20 20 21
20 21 22 21 21 21 19 12 4 3 5 6 10 5 17 9 5 9 10 17 21 11 13 9 5 3 4 4 5 5 4 3 4 6 4 5 5 16 24 21 20 23 25 25 26
22 20 21 21 21 19 16 1 1 3 5 9 7 8 12 7 11 8 3 11 14 8 5 2 4 6 11 9 4 6 5 6 3 2 4 5 9 18 24 22 21 23 27 28 26
22 23 20 19 20 10 11 11 15 11 15 16 27 30 30 28 12 7 4 11 10 6 6 2 6 9 7 3 4 5 4 5 2 6 4 6 8 16 22 27 25 25 25 30 28
21 23 22 19 15 5 6 7 13 13 7 14 23 26 36 21 14 25 7 5 6 7 8 8 6 9 8 5 6 4 5 3 3 5 4 6 1 9 13 17 22 25 28 30 30
21 22 23 22 7 16 2 5 10 7 3 7 7 12 23 22 9 30 24 7 3 14 8 7 6 7 5 9 8 8 11 8 8 4 3 4 4 7 13 18 18 27 28 32 32
21 22 21 22 21 17 12 8 7 1 4 4 5 2 11 21 10 17 28 21 8 6 9 9 9 12 8 10 9 10 8 10 5 5 4 3 1 5 15 16 19 27 32 33 36
22 20 23 21 19 15 16 5 2 4 8 6 4 4 5 5 6 6 18 16 12 3 2 9 4 9 11 10 12 6 2 3 5 4 2 6 7 5 8 20 19 28 33 36 37
25 23 21 21 20 15 11 2 4 4 6 5 3 5 4 7 7 6 12 12 8 8 11 2 13 3 3 2 6 4 7 3 4 1 7 6 7 14 10 10 18 24 33 37 39
26 25 20 15 10 7 3 3 4 4 8 7 8 11 5 6 7 6 11 14 11 6 6 9 7 12 6 9 8 8 9 6 6 3 5 4 6 10 19 25 31 33 38 36 39
26 23 10 14 4 3 3 2 6 1 5 12 10 6 7 8 3 6 6 19 16 9 8 8 7 2 9 5 11 5 5 10 2 5 3 5 7 6 6 14 19 25 24 31 38
25 20 6 15 12 3 4 4 4 3 10 6 6 7 6 9 9 6 9 5 7 13 6 6 2 6 4 7 6 10 7 3 2 6 7 5 5 5 3 11 13 16 27 34 39
17 10 7 15 4 2 3 6 5 3 14 6 4 6 4 6 6 5 4 4 9 7 8 6 4 4 7 8 16 4 3 4 5 6 6 2 6 6 10 12 18 21 31 37 42
10 4 9 7 3 1 2 3 8 9 14 4 6 7 6 5 5 4 5 4 20 4 11 8 5 4 10 1 5 10 10 8 5 5 3 4 7 4 10 14 21 22 28 43 45
15 6 8 6 3 2 5 4 3 4 5 5 6 2 4 5 5 6 6 9 18 10 7 8 5 1 2 5 2 6 6 6 5 4 6 7 7 3 4 7 21 24 32 36 48
6 3 6 7 4 2 4 3 4 5 3 9 5 6 6 8 7 8 6 9 25 23 24 9 5 12 8 6 6 6 7 7 8 5 6 6 8 6 7 11 16 29 35 41 44
3 1 2 3 2 4 1 3 4 4 4 6 4 5 6 5 5 12 13 15 16 10 6 9 8 7 18 6 2 6 7 10 8 8 8 8 9 10 8 10 17 35 41 34 38
1 2 4 5 11 3 1 3 6 7 2 6 6 7 6 5 8 12 11 5 8 5 8 8 6 9 9 18 21 9 8 8 11 6 5 7 9 9 5 6 7 25 30 34 41
2 3 4 6 4 2 2 3 8 14 11 21 14 12 14 13 15 18 24 28 21 16 9 5 2 7 19 7 6 11 22 10 7 6 10 9 11 4 6 7 13 25 34 43 46

GFSSW_850_spd_186.txt.gz
Wind_Speed
13 14 14 14 14 14 14 14 14 14 14 14 14 15 15 14 12 10 5 3 2 2 2 2 3 4 8 7 9 3 2 3 6 7 4 12 4 3 5 15 5 3 16 29 32
13 13 14 15 15 15 15 15 15 15 15 15 15 16 16 16 13 7 3 5 4 2 2 5 5 6 5 4 6 4 3 7 8 7 6 10 9 7 6 10 7 14 19 32 31
15 15 15 14 15 16 16 16 16 16 16 17 15 16 16 16 12 6 11 13 9 7 6 7 4 6 6 5 5 5 4 4 4 11 22 13 7 5 14 2 8 21 32 35 33
16 16 17 17 17 17 17 17 17 17 17 17 16 16 16 12 4 8 8 2 5 10 7 6 2 1 1 3 5 2 2 5 12 16 15 9 8 8 6 4 6 23 36 37 33
18 18 18 18 18 18 18 18 17 17 18 17 16 17 15 8 17 9 11 13 17 9 8 6 4 6 3 5 4 3 3 8 19 21 17 13 8 6 6 4 13 28 31 34 30
18 19 20 20 20 20 20 19 19 18 17 17 16 16 14 8 17 17 20 22 20 11 8 8 3 9 3 6 5 9 17 15 16 14 10 9 4 1 6 10 21 27 27 27 29
20 19 19 21 21 22 21 20 20 19 17 17 17 17 18 28 15 13 15 18 17 15 11 10 8 5 8 4 11 14 7 8 6 5 4 16 4 3 15 15 18 23 28 26 25
23 22 21 20 22 22 22 21 22 20 17 17 16 15 14 18 24 25 26 27 17 14 15 13 8 5 1 14 5 6 5 4 3 6 9 4 3 5 15 19 17 19 22 24 23
23 24 25 24 23 24 21 20 18 15 15 14 13 10 12 13 18 12 18 22 20 15 16 12 5 2 5 5 4 5 4 3 2 12 5 2 2 11 18 19 19 17 20 21 22
23 24 25 25 26 24 20 14 7 7 5 8 11 4 17 6 5 6 7 10 15 17 12 8 5 3 3 4 7 5 3 1 5 8 5 6 3 11 21 19 20 21 21 21 21
25 25 24 24 25 19 18 6 4 5 6 8 5 7 5 8 6 8 5 9 14 13 7 7 4 6 10 8 5 6 3 6 3 6 5 7 5 13 20 18 17 20 22 22 23
24 26 25 23 23 14 11 9 12 9 13 15 27 30 28 22 10 5 9 9 8 7 6 4 7 10 3 6 5 5 3 3 1 3 3 5 2 8 17 20 22 23 23 25 24
24 25 26 23 17 13 6 13 13 14 5 15 20 23 34 25 13 20 10 9 4 7 8 9 8 8 7 5 5 4 6 5 2 4 3 6 3 5 8 16 19 23 27 27 29
23 25 26 24 9 18 4 12 13 10 3 8 6 9 19 18 8 32 18 7 3 10 9 5 4 8 6 6 7 4 8 6 8 4 3 3 4 5 8 15 17 24 27 30 31
23 23 25 23 22 18 12 12 8 1 5 3 4 1 7 16 7 16 30 19 8 6 8 9 9 8 7 8 9 9 7 8 4 2 4 0 1 6 8 9 18 24 29 32 32
23 22 24 23 20 15 17 9 1 4 8 6 2 2 3 5 4 5 11 16 14 4 1 8 6 9 9 5 14 6 7 7 5 4 1 7 6 5 6 11 16 21 29 34 34
23 21 22 20 19 17 13 5 3 4 6 6 5 7 5 4 4 3 8 9 8 7 5 1 4 3 6 5 5 6 7 1 1 1 5 3 2 11 7 8 13 22 28 33 34
23 19 9 13 11 9 6 3 5 4 5 4 7 10 2 7 5 6 8 11 4 7 6 7 6 9 5 11 9 8 9 6 6 4 3 4 6 7 6 14 24 30 32 34 35
22 16 3 13 10 5 1 2 6 1 5 8 6 6 6 6 7 4 8 11 16 9 8 7 6 3 6 4 14 5 6 8 7 2 3 3 8 10 1 6 15 22 23 30 36
21 16 4 14 6 0 3 3 3 5 6 5 4 5 4 6 9 7 6 4 7 10 4 8 3 5 9 4 3 9 9 4 2 3 2 5 5 6 4 8 10 11 25 32 35
16 6 6 14 2 2 2 5 4 2 15 6 5 5 4 5 3 5 4 5 9 9 7 7 3 4 7 10 9 4 5 6 6 4 6 1 6 8 6 10 15 16 29 36 36
10 3 8 7 2 2 2 2 5 3 5 3 3 4 3 5 4 4 4 3 18 8 14 6 5 4 11 1 6 7 8 7 6 4 2 4 7 3 8 8 16 20 34 37 34
14 6 6 5 2 3 6 4 3 2 0 3 3 2 2 3 5 5 4 11 11 11 5 3 4 2 2 4 3 16 6 6 7 4 8 6 7 4 4 8 21 17 28 36 34
6 3 5 8 4 2 4 4 4 7 4 5 4 5 4 3 6 6 7 9 24 23 23 4 3 11 8 6 6 6 11 8 8 5 6 7 7 5 3 8 11 24 28 32 37
3 1 2 3 3 4 2 2 3 4 5 5 3 4 3 4 5 5 3 6 10 7 9 4 6 7 12 4 3 7 10 10 16 8 12 11 9 10 11 10 20 30 33 32 36
3 2 1 5 7 3 2 3 2 1 3 4 3 6 7 3 5 9 10 3 8 7 9 8 4 6 10 15 15 5 5 17 14 6 6 6 9 10 11 15 16 23 29 35 42
4 3 2 4 3 1 3 1 3 11 7 11 9 11 9 9 12 18 21 19 14 8 5 4 4 6 14 7 4 12 22 8 6 5 11 12 12 5 6 9 20 22 23 29 41